CEB370 RPLC-VMMC

Flight info

Callsign CEB370
Flight time N/A
Altitude 38000
Route MALIB2C MALIB DCT AVMUP DCT CHALI
Aircraft A339/H-SADE1E2E3GHIJ3J5M1P2RWXY/LB2D1

Departure

Time 2026-04-25 02:57
Airport Clark International Airport / Clark Air Base (RPLC)

Arrival

Time N/A
Airport Macau International Airport (VMMC)
Time Latitude Longitude Altitude Speed Heading
2026-04-25 02:37 15.19533 120.56216 317 ft 0 kts 21°
2026-04-25 02:46 15.19526 120.56213 426 ft 1 kts 21°
2026-04-25 02:46 15.19519 120.56210 426 ft 1 kts 21°
2026-04-25 02:46 15.19512 120.56208 435 ft 1 kts 21°
2026-04-25 02:46 15.19506 120.56205 431 ft 1 kts 21°
2026-04-25 02:47 15.19499 120.56202 426 ft 1 kts 21°
2026-04-25 02:47 15.19492 120.56199 426 ft 1 kts 21°
2026-04-25 02:47 15.19485 120.56197 429 ft 1 kts 21°
2026-04-25 02:47 15.19478 120.56194 431 ft 1 kts 21°
2026-04-25 02:48 15.19471 120.56192 426 ft 1 kts 29°
2026-04-25 02:48 15.19464 120.56189 426 ft 1 kts 42°
2026-04-25 02:48 15.19458 120.56184 433 ft 1 kts 55°
2026-04-25 02:48 15.19452 120.56178 430 ft 1 kts 84°
2026-04-25 02:49 15.19449 120.56170 428 ft 1 kts 114°
2026-04-25 02:49 15.19448 120.56177 429 ft 1 kts 102°
2026-04-25 02:49 15.19448 120.56184 426 ft 1 kts 98°
2026-04-25 02:50 15.19446 120.56190 426 ft 1 kts 103°
2026-04-25 02:50 15.19446 120.56191 426 ft 0 kts 103°
2026-04-25 02:51 15.19444 120.56202 428 ft 5 kts 103°
2026-04-25 02:51 15.19432 120.56254 436 ft 9 kts 86°
2026-04-25 02:52 15.19488 120.56301 432 ft 12 kts
2026-04-25 02:52 15.19581 120.56332 433 ft 17 kts 20°
2026-04-25 02:52 15.19687 120.56375 429 ft 12 kts 21°
2026-04-25 02:52 15.19758 120.56403 428 ft 14 kts 21°
2026-04-25 02:53 15.19867 120.56446 429 ft 20 kts 20°
2026-04-25 02:53 15.20013 120.56504 428 ft 24 kts 21°
2026-04-25 02:53 15.20132 120.56561 426 ft 15 kts 47°
2026-04-25 02:53 15.20150 120.56646 438 ft 12 kts 80°
2026-04-25 02:54 15.20159 120.56709 442 ft 4 kts 82°
2026-04-25 02:54 15.20162 120.56737 442 ft 7 kts 84°
2026-04-25 02:54 15.20140 120.56804 437 ft 13 kts 121°
2026-04-25 02:54 15.20060 120.56821 433 ft 9 kts 200°
2026-04-25 02:55 15.20045 120.56816 434 ft 0 kts 200°
2026-04-25 02:56 15.20027 120.56809 436 ft 10 kts 200°
2026-04-25 02:56 15.19683 120.56675 430 ft 97 kts 200°
2026-04-25 02:56 15.18808 120.56333 447 ft 167 kts 200°
2026-04-25 02:56 15.18422 120.56187 512 ft 180 kts 199°
2026-04-25 02:57 15.17766 120.55933 795 ft 186 kts 200°
2026-04-25 02:57 15.16518 120.55454 1449 ft 198 kts 200°
2026-04-25 02:57 15.15190 120.54925 2109 ft 209 kts 201°
2026-04-25 02:57 15.13815 120.54360 2766 ft 219 kts 202°
2026-04-25 02:58 15.12341 120.53733 3168 ft 239 kts 202°
2026-04-25 02:58 15.10737 120.53067 3445 ft 257 kts 198°
2026-04-25 02:58 15.08958 120.52869 3875 ft 259 kts 173°
2026-04-25 02:58 15.07248 120.53440 4410 ft 260 kts 149°
2026-04-25 02:59 15.05937 120.54667 4967 ft 259 kts 124°
2026-04-25 02:59 15.05236 120.56364 5504 ft 259 kts 100°
2026-04-25 02:59 15.05304 120.58221 6019 ft 261 kts 75°
2026-04-25 02:59 15.06153 120.59888 6525 ft 265 kts 49°
2026-04-25 03:00 15.07588 120.60999 7343 ft 253 kts 25°
2026-04-25 03:00 15.09288 120.61368 8002 ft 252 kts 358°
2026-04-25 03:00 15.10975 120.60914 8541 ft 253 kts 332°
2026-04-25 03:00 15.12478 120.59987 9083 ft 255 kts 327°
2026-04-25 03:01 15.13987 120.58986 9631 ft 257 kts 326°
2026-04-25 03:01 15.15507 120.57999 10154 ft 259 kts 327°
2026-04-25 03:01 15.17058 120.57027 10627 ft 262 kts 328°
2026-04-25 03:01 15.18701 120.56177 11079 ft 266 kts 339°
2026-04-25 03:02 15.20490 120.55738 11535 ft 269 kts 352°
2026-04-25 03:02 15.22396 120.55535 11781 ft 283 kts 353°
2026-04-25 03:02 15.24411 120.55301 11912 ft 300 kts 352°
2026-04-25 03:02 15.26548 120.55028 12072 ft 319 kts 352°
2026-04-25 03:03 15.28810 120.54729 12232 ft 336 kts 352°
2026-04-25 03:03 15.31188 120.54412 12386 ft 352 kts 352°
2026-04-25 03:03 15.33629 120.54089 12728 ft 360 kts 352°
2026-04-25 03:03 15.36129 120.53760 13226 ft 363 kts 352°
2026-04-25 03:04 15.38650 120.53433 13729 ft 366 kts 352°
2026-04-25 03:04 15.41192 120.53106 14179 ft 369 kts 352°
2026-04-25 03:04 15.43750 120.52776 14626 ft 370 kts 352°
2026-04-25 03:05 15.48899 120.52105 15521 ft 375 kts 351°
2026-04-25 03:05 15.51467 120.51770 15964 ft 377 kts 351°
2026-04-25 03:05 15.54078 120.51431 16414 ft 379 kts 351°
2026-04-25 03:05 15.56703 120.51095 16845 ft 381 kts 351°
2026-04-25 03:06 15.59353 120.50755 17268 ft 383 kts 351°
2026-04-25 03:06 15.62008 120.50413 17686 ft 385 kts 351°
2026-04-25 03:06 15.64676 120.50052 18093 ft 387 kts 348°
2026-04-25 03:06 15.67258 120.49430 18473 ft 387 kts 341°
2026-04-25 03:07 15.69799 120.48452 18826 ft 388 kts 334°
2026-04-25 03:07 15.72202 120.47166 19173 ft 389 kts 327°
2026-04-25 03:07 15.74488 120.45645 19525 ft 391 kts 325°
2026-04-25 03:07 15.76786 120.44115 19903 ft 394 kts 325°
2026-04-25 03:08 15.79109 120.42585 20272 ft 396 kts 325°
2026-04-25 03:08 15.81453 120.41046 20657 ft 399 kts 325°
2026-04-25 03:08 15.83808 120.39501 21044 ft 402 kts 325°
2026-04-25 03:08 15.86189 120.37939 21293 ft 408 kts 325°
2026-04-25 03:09 15.88614 120.36343 21460 ft 417 kts 325°
2026-04-25 03:09 15.91063 120.34732 21593 ft 426 kts 325°
2026-04-25 03:09 15.93549 120.33094 22326 ft 417 kts 324°
2026-04-25 03:09 15.95987 120.31487 22970 ft 414 kts 324°
2026-04-25 03:10 15.98439 120.29869 23311 ft 418 kts 324°
2026-04-25 03:10 16.00912 120.28239 23687 ft 421 kts 324°
2026-04-25 03:10 16.03393 120.26604 24060 ft 422 kts 324°
2026-04-25 03:10 16.05850 120.24984 24431 ft 424 kts 324°
2026-04-25 03:11 16.08344 120.23341 24781 ft 425 kts 324°
2026-04-25 03:11 16.10847 120.21691 25144 ft 427 kts 324°
2026-04-25 03:11 16.13361 120.20033 25497 ft 428 kts 324°
2026-04-25 03:11 16.15884 120.18369 25857 ft 430 kts 324°
2026-04-25 03:12 16.18418 120.16697 26211 ft 431 kts 324°
2026-04-25 03:12 16.20955 120.15021 26553 ft 433 kts 324°
2026-04-25 03:12 16.23509 120.13335 26908 ft 435 kts 324°
2026-04-25 03:12 16.26078 120.11637 27096 ft 440 kts 324°
2026-04-25 03:13 16.28690 120.09910 27183 ft 448 kts 324°
2026-04-25 03:13 16.31345 120.08154 27263 ft 456 kts 325°
2026-04-25 03:13 16.34013 120.06390 27338 ft 463 kts 325°
2026-04-25 03:13 16.36752 120.04578 27448 ft 469 kts 325°
2026-04-25 03:14 16.39516 120.02750 27693 ft 472 kts 325°
2026-04-25 03:14 16.42296 120.00910 27895 ft 475 kts 325°
2026-04-25 03:14 16.45082 119.99067 28263 ft 474 kts 325°
2026-04-25 03:14 16.47856 119.97230 28694 ft 472 kts 325°
2026-04-25 03:15 16.50638 119.95388 29124 ft 470 kts 325°
2026-04-25 03:15 16.53391 119.93563 29530 ft 469 kts 324°
2026-04-25 03:15 16.56148 119.91735 29956 ft 468 kts 324°
2026-04-25 03:15 16.58888 119.89917 30334 ft 467 kts 324°
2026-04-25 03:16 16.61634 119.88095 30663 ft 467 kts 324°
2026-04-25 03:16 16.64347 119.86293 30997 ft 467 kts 324°
2026-04-25 03:16 16.67098 119.84466 31357 ft 467 kts 324°
2026-04-25 03:16 16.69845 119.82641 31712 ft 467 kts 324°
2026-04-25 03:17 16.72598 119.80812 32077 ft 467 kts 324°
2026-04-25 03:17 16.75337 119.78997 32428 ft 467 kts 325°
2026-04-25 03:17 16.78049 119.77208 32773 ft 467 kts 325°
2026-04-25 03:17 16.80799 119.75389 33124 ft 467 kts 324°
2026-04-25 03:18 16.83540 119.73572 33471 ft 467 kts 324°
2026-04-25 03:18 16.86281 119.71749 33820 ft 466 kts 324°
2026-04-25 03:18 16.89009 119.69932 34156 ft 466 kts 324°
2026-04-25 03:18 16.91748 119.68107 34471 ft 465 kts 324°
2026-04-25 03:19 16.94469 119.66292 34794 ft 464 kts 324°
2026-04-25 03:19 16.97189 119.64477 35107 ft 463 kts 324°
2026-04-25 03:19 16.99916 119.62655 35276 ft 467 kts 324°
2026-04-25 03:19 17.02634 119.60838 35326 ft 472 kts 324°
2026-04-25 03:20 17.08219 119.57106 35420 ft 479 kts 324°
2026-04-25 03:20 17.11028 119.55229 35574 ft 479 kts 324°
2026-04-25 03:20 17.13837 119.53352 35732 ft 479 kts 324°
2026-04-25 03:21 17.16647 119.51474 35903 ft 479 kts 324°
2026-04-25 03:21 17.19452 119.49597 36068 ft 479 kts 324°
2026-04-25 03:21 17.22259 119.47719 36240 ft 478 kts 324°
2026-04-25 03:21 17.25063 119.45842 36411 ft 478 kts 324°
2026-04-25 03:22 17.27862 119.43968 36582 ft 478 kts 324°
2026-04-25 03:22 17.30623 119.42118 36750 ft 478 kts 324°
2026-04-25 03:22 17.33427 119.40239 36917 ft 477 kts 324°
2026-04-25 03:22 17.36226 119.38362 37080 ft 477 kts 324°
2026-04-25 03:23 17.39021 119.36488 37241 ft 477 kts 324°
2026-04-25 03:23 17.41808 119.34618 37421 ft 476 kts 324°
2026-04-25 03:23 17.44601 119.32744 37588 ft 476 kts 324°
2026-04-25 03:23 17.47384 119.30876 37760 ft 475 kts 324°
2026-04-25 03:24 17.50164 119.29009 37931 ft 475 kts 324°
2026-04-25 03:24 17.52945 119.27140 37980 ft 475 kts 324°
2026-04-25 03:24 17.58486 119.23417 37989 ft 472 kts 324°
2026-04-25 03:25 17.63985 119.19718 37989 ft 471 kts 323°
2026-04-25 03:25 17.68613 119.16603 37984 ft 471 kts 323°
2026-04-25 03:26 17.75021 119.12287 37985 ft 470 kts 323°
2026-04-25 03:26 17.79599 119.09202 37993 ft 470 kts 323°
2026-04-25 03:27 17.85105 119.05474 37997 ft 470 kts 323°
2026-04-25 03:27 17.90573 119.01773 37999 ft 469 kts 323°
2026-04-25 03:28 17.95996 118.97964 37983 ft 467 kts 318°
2026-04-25 03:28 18.00687 118.93320 37981 ft 460 kts 307°
2026-04-25 03:29 18.04459 118.87925 37979 ft 457 kts 300°
2026-04-25 03:29 18.07987 118.82420 37986 ft 457 kts 300°
2026-04-25 03:30 18.11563 118.76874 38010 ft 457 kts 300°
2026-04-25 03:30 18.15126 118.71337 38002 ft 457 kts 300°
2026-04-25 03:31 18.18665 118.65828 37995 ft 457 kts 300°
2026-04-25 03:31 18.22230 118.60271 37985 ft 460 kts 300°
2026-04-25 03:32 18.25829 118.54653 37993 ft 464 kts 300°
2026-04-25 03:32 18.29428 118.49035 37995 ft 466 kts 300°
2026-04-25 03:33 18.33058 118.43361 37998 ft 467 kts 300°
2026-04-25 03:33 18.36688 118.37685 37996 ft 466 kts 300°
2026-04-25 03:34 18.40309 118.32006 37996 ft 466 kts 300°
2026-04-25 03:34 18.43891 118.26372 38000 ft 465 kts 300°
2026-04-25 03:35 18.47498 118.20707 37998 ft 464 kts 300°
2026-04-25 03:35 18.51096 118.15057 37998 ft 464 kts 300°
2026-04-25 03:36 18.54685 118.09418 38000 ft 463 kts 300°
2026-04-25 03:36 18.58280 118.03768 37998 ft 463 kts 300°
2026-04-25 03:37 18.61840 117.98168 37997 ft 462 kts 300°
2026-04-25 03:37 18.65426 117.92521 37997 ft 462 kts 300°
2026-04-25 03:38 18.69000 117.86888 37999 ft 461 kts 300°
2026-04-25 03:38 18.72547 117.81292 38000 ft 461 kts 300°
2026-04-25 03:39 18.76116 117.75657 37994 ft 461 kts 300°
2026-04-25 03:39 18.79074 117.70982 37998 ft 460 kts 300°
2026-04-25 03:40 18.83211 117.64438 38002 ft 460 kts 300°
2026-04-25 03:40 18.86768 117.58806 38005 ft 459 kts 300°
2026-04-25 03:41 18.90308 117.53195 38004 ft 459 kts 300°
2026-04-25 03:41 18.93824 117.47618 38007 ft 458 kts 300°
2026-04-25 03:42 18.97359 117.42006 38005 ft 457 kts 300°
2026-04-25 03:42 19.00879 117.36412 38009 ft 457 kts 300°
2026-04-25 03:43 19.04397 117.30815 38010 ft 456 kts 300°
2026-04-25 03:43 19.07882 117.25266 38011 ft 455 kts 300°
2026-04-25 03:44 19.11392 117.19673 38015 ft 454 kts 300°
2026-04-25 03:44 19.14885 117.14101 38016 ft 453 kts 300°
2026-04-25 03:45 19.18344 117.08577 38013 ft 452 kts 300°
2026-04-25 03:45 19.21817 117.03030 38016 ft 452 kts 300°
2026-04-25 03:46 19.25295 116.97481 38011 ft 451 kts 299°
2026-04-25 03:46 19.28731 116.91969 38012 ft 450 kts 299°
2026-04-25 03:47 19.32173 116.86449 38010 ft 449 kts 299°
2026-04-25 03:47 19.35616 116.80925 38016 ft 448 kts 299°
2026-04-25 03:48 19.39049 116.75414 38016 ft 447 kts 299°
2026-04-25 03:48 19.42467 116.69924 38016 ft 446 kts 299°
2026-04-25 03:49 19.45861 116.64469 38017 ft 445 kts 299°
2026-04-25 03:49 19.49264 116.58987 38016 ft 444 kts 299°
2026-04-25 03:50 19.52661 116.53512 38018 ft 443 kts 299°
2026-04-25 03:50 19.56049 116.48049 38019 ft 442 kts 299°
2026-04-25 03:51 19.59426 116.42597 38019 ft 441 kts 299°
2026-04-25 03:51 19.62764 116.37203 38019 ft 440 kts 299°
2026-04-25 03:52 19.66125 116.31772 38013 ft 439 kts 299°
2026-04-25 03:52 19.69479 116.26349 38014 ft 438 kts 299°
2026-04-25 03:53 19.72822 116.20928 38013 ft 438 kts 299°
2026-04-25 03:53 19.76137 116.15547 38009 ft 437 kts 299°
2026-04-25 03:54 19.79473 116.10131 38012 ft 437 kts 299°
2026-04-25 03:54 19.82783 116.04751 38016 ft 437 kts 299°
2026-04-25 03:55 19.86115 115.99336 38007 ft 437 kts 299°
2026-04-25 03:55 19.89428 115.93947 38011 ft 437 kts 299°
2026-04-25 03:56 19.92749 115.88537 38025 ft 437 kts 298°
2026-04-25 03:56 19.96072 115.83119 38026 ft 436 kts 298°
2026-04-25 03:57 19.99391 115.77710 38018 ft 436 kts 298°
2026-04-25 03:57 20.02704 115.72297 38020 ft 436 kts 298°
2026-04-25 03:58 20.05992 115.66926 38023 ft 436 kts 298°
2026-04-25 03:58 20.09293 115.61519 38020 ft 435 kts 298°
2026-04-25 03:59 20.12606 115.56091 38021 ft 435 kts 298°
2026-04-25 03:59 20.15903 115.50686 38019 ft 435 kts 298°
2026-04-25 04:00 20.19177 115.45317 38018 ft 435 kts 298°
2026-04-25 04:00 20.22472 115.39906 38019 ft 435 kts 298°
2026-04-25 04:01 20.25766 115.34494 38019 ft 435 kts 298°
2026-04-25 04:01 20.29035 115.29114 38023 ft 435 kts 298°
2026-04-25 04:02 20.32324 115.23695 38023 ft 435 kts 298°
2026-04-25 04:02 20.35610 115.18277 38023 ft 435 kts 298°
2026-04-25 04:03 20.38877 115.12887 38027 ft 435 kts 298°
2026-04-25 04:03 20.42156 115.07471 38029 ft 434 kts 298°
2026-04-25 04:04 20.45432 115.02051 38025 ft 434 kts 298°
2026-04-25 04:04 20.48710 114.96634 38030 ft 434 kts 298°
2026-04-25 04:05 20.51967 114.91243 38031 ft 434 kts 297°
2026-04-25 04:05 20.55235 114.85833 38042 ft 429 kts 298°
2026-04-25 04:06 20.56836 114.83181 37777 ft 422 kts 297°
2026-04-25 04:06 20.58418 114.80552 37521 ft 419 kts 297°
2026-04-25 04:06 20.59991 114.77933 37266 ft 421 kts 297°
2026-04-25 04:06 20.61576 114.75294 37013 ft 423 kts 297°
2026-04-25 04:07 20.63166 114.72649 36767 ft 423 kts 298°
2026-04-25 04:07 20.64760 114.70001 36351 ft 423 kts 298°
2026-04-25 04:07 20.66358 114.67343 35516 ft 427 kts 298°
2026-04-25 04:07 20.67953 114.64682 34336 ft 435 kts 298°
2026-04-25 04:08 20.69596 114.61942 33167 ft 439 kts 298°
2026-04-25 04:08 20.71243 114.59203 32199 ft 437 kts 298°
2026-04-25 04:08 20.72891 114.56459 31312 ft 438 kts 298°
2026-04-25 04:08 20.74537 114.53720 30731 ft 436 kts 298°
2026-04-25 04:09 20.76173 114.50991 30267 ft 434 kts 298°
2026-04-25 04:09 20.77802 114.48273 29587 ft 434 kts 298°
2026-04-25 04:09 20.79421 114.45569 29030 ft 428 kts 298°
2026-04-25 04:09 20.80996 114.42936 28451 ft 423 kts 298°
2026-04-25 04:10 20.82569 114.40302 27878 ft 418 kts 298°
2026-04-25 04:10 20.84129 114.37690 27308 ft 413 kts 298°
2026-04-25 04:10 20.85664 114.35120 26748 ft 408 kts 299°
2026-04-25 04:10 20.87192 114.32564 26198 ft 405 kts 299°
2026-04-25 04:11 20.90193 114.27538 25112 ft 397 kts 299°
2026-04-25 04:11 20.91675 114.25051 24540 ft 395 kts 300°
2026-04-25 04:11 20.93145 114.22582 24043 ft 391 kts 300°
2026-04-25 04:12 20.94585 114.20165 23503 ft 388 kts 300°
2026-04-25 04:12 20.96028 114.17746 22962 ft 383 kts 300°
2026-04-25 04:12 20.97451 114.15355 22432 ft 377 kts 300°
2026-04-25 04:12 20.98850 114.13006 21928 ft 374 kts 300°
2026-04-25 04:13 21.00296 114.10570 21416 ft 398 kts 301°
2026-04-25 04:13 21.01294 114.08891 21244 ft 402 kts 301°
2026-04-25 04:13 21.03286 114.05538 20554 ft 405 kts 301°
2026-04-25 04:13 21.04811 114.02972 19663 ft 412 kts 301°
2026-04-25 04:14 21.05850 114.01226 19235 ft 410 kts 301°
2026-04-25 04:14 21.07347 113.98714 18701 ft 400 kts 301°
2026-04-25 04:14 21.08828 113.96220 18124 ft 392 kts 302°
2026-04-25 04:14 21.10276 113.93780 17580 ft 383 kts 301°
2026-04-25 04:15 21.11689 113.91400 17052 ft 374 kts 301°
2026-04-25 04:15 21.13070 113.89072 16534 ft 365 kts 301°
2026-04-25 04:15 21.14417 113.86801 16019 ft 358 kts 301°
2026-04-25 04:15 21.15744 113.84566 15520 ft 351 kts 301°
2026-04-25 04:16 21.17042 113.82374 14994 ft 346 kts 301°
2026-04-25 04:16 21.18301 113.80243 14576 ft 338 kts 301°
2026-04-25 04:16 21.19572 113.78090 14164 ft 352 kts 301°
2026-04-25 04:16 21.20896 113.75850 14056 ft 356 kts 301°
2026-04-25 04:17 21.22226 113.73600 13617 ft 357 kts 301°
2026-04-25 04:17 21.23554 113.71350 12995 ft 357 kts 301°
2026-04-25 04:17 21.24877 113.69108 12297 ft 354 kts 301°
2026-04-25 04:17 21.26187 113.66893 11604 ft 350 kts 301°
2026-04-25 04:18 21.27533 113.64727 10876 ft 348 kts 308°
2026-04-25 04:18 21.29339 113.63064 10276 ft 346 kts 328°
2026-04-25 04:18 21.31566 113.62216 10014 ft 334 kts 349°
2026-04-25 04:18 21.33829 113.62305 9840 ft 320 kts 11°
2026-04-25 04:19 21.35838 113.63176 9615 ft 305 kts 26°
2026-04-25 04:19 21.37670 113.64290 9177 ft 298 kts 28°
2026-04-25 04:19 21.39445 113.65360 9006 ft 288 kts 26°
2026-04-25 04:19 21.41267 113.66344 8977 ft 297 kts 24°